KD6VLN-14 Weather Reports


Display with metric or nautical units.
time (UTC)temp
F
wind
direction
speed
MPH
gust
MPH
rain 1hr
in
rain 24hr
in
rain mn
in
humidity
%
barometer
mb
20260509150905 86 3 2.0 4.0 0.00 0.00 0.00 28
20260509150448 85 13 2.0 4.0 0.00 0.00 0.00 29
20260509150406 85 13 2.0 4.0 0.00 0.00 0.00 29
20260509145944 85 9 2.0 3.0 0.00 0.00 0.00 28
20260509145905 85 9 2.0 3.0 0.00 0.00 0.00 28
20260509145408 84 7 2.0 3.0 0.00 0.00 0.00 28
20260509144907 83 351 1.0 3.0 0.00 0.00 0.00 28
20260509144407 82 14 0.0 2.0 0.00 0.00 0.00 29
20260509143906 81 260 1.0 2.0 0.00 0.00 0.00 30
20260509143406 81 255 1.0 3.0 0.00 0.00 0.00 31
20260509142906 81 268 1.0 3.0 0.00 0.00 0.00 31
20260509142406 80 289 1.0 3.0 0.00 0.00 0.00 30
20260509141905 79 276 1.0 3.0 0.00 0.00 0.00 31
20260509141410 78 252 2.0 3.0 0.00 0.00 0.00 32
20260509140905 78 253 2.0 3.0 0.00 0.00 0.00 32
20260509140406 77 260 2.0 3.0 0.00 0.00 0.00 32
20260509135912 76 298 1.0 2.0 0.00 0.00 0.00 31
20260509135405 75 311 1.0 2.0 0.00 0.00 0.00 30
20260509134906 74 319 0.0 1.0 0.00 0.00 0.00 29
20260509134405 74 345 0.0 0.0 0.00 0.00 0.00 29
20260509133906 73 349 0.0 0.0 0.00 0.00 0.00 29
20260509133405 73 346 0.0 0.0 0.00 0.00 0.00 29
20260509132906 73 279 0.0 0.0 0.00 0.00 0.00 32
20260509132406 72 8 0.0 0.0 0.00 0.00 0.00 29
20260509131905 71 30 0.0 0.0 0.00 0.00 0.00 28
20260509131405 70 61 0.0 0.0 0.00 0.00 0.00 29
20260509130905 70 82 0.0 0.0 0.00 0.00 0.00 29
20260509130405 69 88 0.0 0.0 0.00 0.00 0.00 29
20260509125906 68 109 0.0 0.0 0.00 0.00 0.00 32
20260509125406 67 103 0.0 0.0 0.00 0.00 0.00 31
20260509124905 67 100 0.0 3.0 0.00 0.00 0.00 30
20260509124405 66 103 0.0 3.0 0.00 0.00 0.00 31
20260509123906 66 93 0.0 0.0 0.00 0.00 0.00 30
20260509123405 67 88 0.0 0.0 0.00 0.00 0.00 29
20260509122914 66 99 0.0 0.0 0.00 0.00 0.00 31
20260509122406 66 91 0.0 0.0 0.00 0.00 0.00 29
20260509121906 66 92 0.0 0.0 0.00 0.00 0.00 28
20260509121408 66 95 0.0 0.0 0.00 0.00 0.00 30
20260509120906 66 97 0.0 3.0 0.00 0.00 0.00 30
20260509120407 66 86 1.0 3.0 0.00 0.00 0.00 29
20260509115905 66 88 2.0 3.0 0.00 0.00 0.00 29
20260509115408 65 90 2.0 3.0 0.00 0.00 0.00 29
20260509114905 65 89 1.0 3.0 0.00 0.00 0.00 29
20260509114410 65 76 0.0 3.0 0.00 0.00 0.00 30
20260509113906 65 87 0.0 2.0 0.00 0.00 0.00 30
20260509113405 65 78 0.0 2.0 0.00 0.00 0.00 29
20260509112905 65 64 0.0 3.0 0.00 0.00 0.00 29
20260509112407 65 76 0.0 3.0 0.00 0.00 0.00 29
20260509111905 65 89 0.0 0.0 0.00 0.00 0.00 29
20260509111407 65 95 0.0 0.0 0.00 0.00 0.00 29
20260509110906 65 90 0.0 2.0 0.00 0.00 0.00 28
20260509110406 65 96 0.0 2.0 0.00 0.00 0.00 30
20260509105907 65 91 0.0 0.0 0.00 0.00 0.00 28
20260509105405 65 95 0.0 2.0 0.00 0.00 0.00 29
20260509104907 64 108 0.0 2.0 0.00 0.00 0.00 30
20260509104406 64 84 0.0 0.0 0.00 0.00 0.00 27
20260509103906 64 52 0.0 0.0 0.00 0.00 0.00 27
20260509103406 65 67 0.0 0.0 0.00 0.00 0.00 27
20260509102906 66 64 0.0 0.0 0.00 0.00 0.00 27
20260509102407 68 46 0.0 0.0 0.00 0.00 0.00 26
20260509101906 69 220 0.0 3.0 0.00 0.00 0.00 27
20260509101406 70 176 0.0 4.0 0.00 0.00 0.00 30
20260509100909 71 195 2.0 5.0 0.00 0.00 0.00 30
20260509100406 71 191 3.0 5.0 0.00 0.00 0.00 29
20260509095906 70 190 3.0 5.0 0.00 0.00 0.00 30
20260509095408 70 192 0.0 5.0 0.00 0.00 0.00 30
20260509094906 71 185 3.0 6.0 0.00 0.00 0.00 29
20260509094407 70 192 4.0 6.0 0.00 0.00 0.00 30
20260509093906 70 190 4.0 5.0 0.00 0.00 0.00 30
20260509093406 70 188 3.0 4.0 0.00 0.00 0.00 29
20260509092906 70 192 3.0 4.0 0.00 0.00 0.00 29
20260509091906 70 184 3.0 4.0 0.00 0.00 0.00 30
20260509091406 70 191 3.0 4.0 0.00 0.00 0.00 29
20260509090906 70 184 3.0 4.0 0.00 0.00 0.00 29
20260509090406 70 183 3.0 4.0 0.00 0.00 0.00 29
20260509085906 69 183 3.0 4.0 0.00 0.00 0.00 30
20260509085406 69 178 2.0 4.0 0.00 0.00 0.00 29
20260509084917 69 179 2.0 4.0 0.00 0.00 0.00 29
20260509084407 69 166 1.0 3.0 0.00 0.00 0.00 29
20260509083906 69 146 1.0 3.0 0.00 0.00 0.00 28
20260509083409 69 168 1.0 3.0 0.00 0.00 0.00 29
20260509082906 69 175 2.0 3.0 0.00 0.00 0.00 29
20260509082412 69 165 0.0 3.0 0.00 0.00 0.00 29
20260509081906 69 157 1.0 4.0 0.00 0.00 0.00 28
20260509081406 69 169 2.0 4.0 0.00 0.00 0.00 28
20260509080906 69 125 2.0 4.0 0.00 0.00 0.00 28
20260509080407 70 127 2.0 4.0 0.00 0.00 0.00 26
20260509075906 70 124 0.0 2.0 0.00 0.00 0.00 26
20260509074906 71 220 2.0 7.0 0.00 0.00 0.00 26
20260509074406 71 214 5.0 7.0 0.00 0.00 0.00 26
20260509073406 72 220 5.0 8.0 0.00 0.00 0.00 26
20260509072906 72 220 5.0 8.0 0.00 0.00 0.00 25
20260509072406 72 213 5.0 8.0 0.00 0.00 0.00 26
20260509071906 72 209 5.0 7.0 0.00 0.00 0.00 26
20260509071406 72 226 4.0 7.0 0.00 0.00 0.00 26
20260509070906 73 213 4.0 8.0 0.00 0.00 0.00 26
20260509070406 73 214 6.0 9.0 0.00 0.00 0.00 26
20260509065906 73 214 7.0 9.0 0.00 0.00 0.00 26
20260509065406 73 219 4.0 7.0 0.00 0.00 0.00 27
20260509064406 74 213 4.0 5.0 0.00 0.00 0.00 27
20260509063914 74 211 4.0 5.0 0.00 0.00 0.00 27
20260509063406 74 195 3.0 5.0 0.00 0.00 0.00 27
20260509062906 74 196 4.0 5.0 0.00 0.00 0.00 27
20260509062407 74 193 4.0 5.0 0.00 0.00 0.00 28
20260509061906 74 204 4.0 5.0 0.00 0.00 0.00 27
20260509061406 74 196 3.0 6.0 0.00 0.00 0.00 27
20260509060906 74 200 4.0 6.0 0.00 0.00 0.00 27
20260509060406 74 205 4.0 6.0 0.00 0.00 0.00 27
20260509055908 74 201 4.0 5.0 0.00 0.00 0.00 27
20260509055406 74 208 4.0 6.0 0.00 0.00 0.00 27
20260509054907 74 205 5.0 6.0 0.00 0.00 0.00 26
20260509054406 74 214 4.0 5.0 0.00 0.00 0.00 27
20260509053906 74 221 4.0 5.0 0.00 0.00 0.00 27
20260509053411 74 204 3.0 5.0 0.00 0.00 0.00 28
20260509052906 74 173 0.0 3.0 0.00 0.00 0.00 25
20260509052513 74 140 0.0 3.0 0.00 0.00 0.00 26
20260509052406 74 140 0.0 3.0 0.00 0.00 0.00 26
20260509051906 74 115 2.0 3.0 0.00 0.00 0.00 24
20260509051406 74 35 0.0 1.0 0.00 0.00 0.00 24
20260509050950 75 279 0.0 1.0 0.00 0.00 0.00 24
20260509050906 75 279 0.0 1.0 0.00 0.00 0.00 24
20260509050407 75 195 0.0 2.0 0.00 0.00 0.00 24
20260509045940 75 224 1.0 3.0 0.00 0.00 0.00 25
20260509045906 75 224 1.0 3.0 0.00 0.00 0.00 25
20260509044942 75 164 1.0 3.0 0.00 0.00 0.00 24
20260509044906 75 164 1.0 3.0 0.00 0.00 0.00 24
20260509044406 75 181 2.0 3.0 0.00 0.00 0.00 24
20260509044005 75 171 1.0 2.0 0.00 0.00 0.00 24
20260509043906 75 171 1.0 2.0 0.00 0.00 0.00 24
20260509043438 75 154 1.0 4.0 0.00 0.00 0.00 24
20260509043406 75 154 1.0 4.0 0.00 0.00 0.00 24
20260509042906 75 138 3.0 4.0 0.00 0.00 0.00 23
20260509042439 75 127 2.0 4.0 0.00 0.00 0.00 23
20260509042407 75 127 2.0 4.0 0.00 0.00 0.00 23
20260509041906 75 127 1.0 3.0 0.00 0.00 0.00 24
20260509041513 75 100 1.0 3.0 0.00 0.00 0.00 23
20260509041407 75 100 1.0 3.0 0.00 0.00 0.00 23
20260509040949 75 81 1.0 2.0 0.00 0.00 0.00 23
20260509040907 75 81 1.0 2.0 0.00 0.00 0.00 23
20260509040516 76 46 0.0 3.0 0.00 0.00 0.00 23
20260509040437 76 46 0.0 3.0 0.00 0.00 0.00 23
20260509040406 76 46 0.0 3.0 0.00 0.00 0.00 23
20260509035906 77 320 0.0 3.0 0.00 0.00 0.00 24
20260509035501 78 283 2.0 5.0 0.00 0.00 0.00 24
20260509035406 78 283 2.0 5.0 0.00 0.00 0.00 24
20260509034906 79 294 2.0 5.0 0.00 0.00 0.00 25
20260509034453 79 285 3.0 5.0 0.00 0.00 0.00 27
20260509034406 79 285 3.0 5.0 0.00 0.00 0.00 27
20260509034014 79 272 3.0 6.0 0.00 0.00 0.00 27
20260509033906 79 272 3.0 6.0 0.00 0.00 0.00 27
20260509033408 79 278 3.0 6.0 0.00 0.00 0.00 28
20260509032938 79 286 3.0 5.0 0.00 0.00 0.00 26
20260509032906 79 286 3.0 5.0 0.00 0.00 0.00 26
20260509032406 80 279 3.0 6.0 0.00 0.00 0.00 27
20260509032012 80 280 3.0 6.0 0.00 0.00 0.00 27
20260509031906 80 280 3.0 6.0 0.00 0.00 0.00 27
20260509031501 80 297 3.0 6.0 0.00 0.00 0.00 26
20260509031408 80 297 3.0 6.0 0.00 0.00 0.00 26
20260509030942 80 285 3.0 6.0 0.00 0.00 0.00 27
20260509030907 80 285 3.0 6.0 0.00 0.00 0.00 27
20260509030510 80 282 3.0 6.0 0.00 0.00 0.00 27
20260509030407 80 282 3.0 6.0 0.00 0.00 0.00 27
20260509025954 81 269 3.0 6.0 0.00 0.00 0.00 28
20260509025906 81 269 3.0 6.0 0.00 0.00 0.00 28
20260509025442 81 273 3.0 6.0 0.00 0.00 0.00 28
20260509025406 81 273 3.0 6.0 0.00 0.00 0.00 28
20260509025001 81 272 3.0 6.0 0.00 0.00 0.00 28
20260509024906 81 272 3.0 6.0 0.00 0.00 0.00 28
20260509024406 81 276 3.0 5.0 0.00 0.00 0.00 28
20260509023947 81 265 3.0 6.0 0.00 0.00 0.00 29
20260509023906 81 265 3.0 6.0 0.00 0.00 0.00 29
20260509023406 81 279 3.0 6.0 0.00 0.00 0.00 27
20260509022942 82 285 3.0 7.0 0.00 0.00 0.00 28
20260509022906 82 285 3.0 7.0 0.00 0.00 0.00 28
20260509022450 82 279 3.0 7.0 0.00 0.00 0.00 28
20260509022406 82 279 3.0 7.0 0.00 0.00 0.00 28
20260509022008 83 283 3.0 6.0 0.00 0.00 0.00 28
20260509021906 83 283 3.0 6.0 0.00 0.00 0.00 28
20260509021406 83 285 3.0 7.0 0.00 0.00 0.00 26
20260509021009 83 294 3.0 7.0 0.00 0.00 0.00 25
20260509020906 83 294 3.0 7.0 0.00 0.00 0.00 25
20260509020406 84 300 4.0 8.0 0.00 0.00 0.00 25
20260509015942 85 298 4.0 8.0 0.00 0.00 0.00 25
20260509015906 85 298 4.0 8.0 0.00 0.00 0.00 25
20260509015546 86 288 4.0 9.0 0.00 0.00 0.00 25
20260509015407 86 288 4.0 9.0 0.00 0.00 0.00 25
20260509014906 87 298 4.0 9.0 0.00 0.00 0.00 26
20260509014442 88 300 5.0 11.0 0.00 0.00 0.00 25
20260509014408 88 300 5.0 11.0 0.00 0.00 0.00 25
20260509014007 89 301 5.0 11.0 0.00 0.00 0.00 26
20260509013906 89 301 5.0 11.0 0.00 0.00 0.00 26
20260509013507 89 303 4.0 11.0 0.00 0.00 0.00 25
20260509013406 89 303 4.0 11.0 0.00 0.00 0.00 25
20260509013007 90 298 5.0 11.0 0.00 0.00 0.00 26
20260509012906 90 298 5.0 11.0 0.00 0.00 0.00 26
20260509012507 90 304 5.0 10.0 0.00 0.00 0.00 25
20260509012407 90 304 5.0 10.0 0.00 0.00 0.00 25
20260509011906 91 302 5.0 10.0 0.00 0.00 0.00 25
20260509011506 91 298 6.0 10.0 0.00 0.00 0.00 25
20260509011408 91 298 6.0 10.0 0.00 0.00 0.00 25
20260509010956 92 303 5.0 11.0 0.00 0.00 0.00 25
20260509010906 92 303 5.0 11.0 0.00 0.00 0.00 25
20260509010406 92 298 5.0 11.0 0.00 0.00 0.00 26
20260509005939 92 300 5.0 11.0 0.00 0.00 0.00 25
20260509005906 92 300 5.0 11.0 0.00 0.00 0.00 25
20260509005406 92 299 6.0 11.0 0.00 0.00 0.00 26
20260509004906 92 273 7.0 14.0 0.00 0.00 0.00 27
20260509004502 93 276 6.0 14.0 0.00 0.00 0.00 26
20260509004407 93 276 6.0 14.0 0.00 0.00 0.00 26
20260509003950 93 301 6.0 11.0 0.00 0.00 0.00 25
20260509003906 93 301 6.0 11.0 0.00 0.00 0.00 25
20260509003408 93 299 6.0 10.0 0.00 0.00 0.00 26
20260509002906 94 286 5.0 12.0 0.00 0.00 0.00 27
20260509002440 94 280 6.0 12.0 0.00 0.00 0.00 27
20260509002407 94 280 6.0 12.0 0.00 0.00 0.00 27
20260509001906 94 299 6.0 15.0 0.00 0.00 0.00 26
20260509001451 94 280 7.0 15.0 0.00 0.00 0.00 27
20260509001407 94 280 7.0 15.0 0.00 0.00 0.00 27
20260509000940 94 276 7.0 13.0 0.00 0.00 0.00 27
20260509000906 94 276 7.0 13.0 0.00 0.00 0.00 27
20260509000437 95 293 7.0 14.0 0.00 0.00 0.00 27
20260509000406 95 293 7.0 14.0 0.00 0.00 0.00 27
20260509000002 95 302 6.0 14.0 0.00 0.00 0.00 28
20260508235906 95 302 6.0 14.0 0.00 0.00 0.00 28
20260508235407 95 297 5.0 14.0 0.00 0.00 0.00 28
20260508234943 95 292 6.0 13.0 0.00 0.00 0.00 28
20260508234906 95 292 6.0 13.0 0.00 0.00 0.00 28
20260508234407 95 276 8.0 13.0 0.00 0.00 0.00 30
20260508233906 96 277 6.0 12.0 0.00 0.00 0.00 29
20260508233406 96 281 7.0 13.0 0.00 0.00 0.00 29
20260508232947 96 276 6.0 15.0 0.00 0.00 0.00 29
20260508232906 96 276 6.0 15.0 0.00 0.00 0.00 29
20260508232449 95 281 6.0 15.0 0.00 0.00 0.00 30
20260508232409 95 281 6.0 15.0 0.00 0.00 0.00 30
20260508231906 95 271 7.0 15.0 0.00 0.00 0.00 31
20260508231406 96 270 8.0 15.0 0.00 0.00 0.00 31
20260508231003 95 275 8.0 14.0 0.00 0.00 0.00 29
20260508230906 95 275 8.0 14.0 0.00 0.00 0.00 29
20260508230458 96 297 7.0 14.0 0.00 0.00 0.00 28
20260508230406 96 297 7.0 14.0 0.00 0.00 0.00 28
20260508225944 96 285 6.0 13.0 0.00 0.00 0.00 29
20260508225906 96 285 6.0 13.0 0.00 0.00 0.00 29
20260508225502 96 300 7.0 13.0 0.00 0.00 0.00 30
20260508225406 96 300 7.0 13.0 0.00 0.00 0.00 30
20260508224906 96 274 8.0 13.0 0.00 0.00 0.00 31
20260508224406 96 281 7.0 13.0 0.00 0.00 0.00 30
20260508223948 96 272 7.0 11.0 0.00 0.00 0.00 32
20260508223906 96 272 7.0 11.0 0.00 0.00 0.00 32
20260508223409 96 275 5.0 13.0 0.00 0.00 0.00 31
20260508222956 95 279 8.0 15.0 0.00 0.00 0.00 32
20260508222909 95 279 8.0 15.0 0.00 0.00 0.00 32
20260508222445 96 268 10.0 15.0 0.00 0.00 0.00 32
20260508222408 96 268 10.0 15.0 0.00 0.00 0.00 32
20260508222045 96 274 6.0 13.0 0.00 0.00 0.00 32
20260508221909 96 274 6.0 13.0 0.00 0.00 0.00 32
20260508221437 96 274 8.0 12.0 0.00 0.00 0.00 32
20260508221406 96 274 8.0 12.0 0.00 0.00 0.00 32
20260508220955 96 300 6.0 14.0 0.00 0.00 0.00 31
20260508220906 96 300 6.0 14.0 0.00 0.00 0.00 31
20260508220447 95 275 7.0 14.0 0.00 0.00 0.00 32
20260508220407 95 275 7.0 14.0 0.00 0.00 0.00 32
20260508215906 95 284 6.0 15.0 0.00 0.00 0.00 32
20260508215406 95 278 8.0 15.0 0.00 0.00 0.00 32
20260508215006 94 274 8.0 17.0 0.00 0.00 0.00 32
20260508214906 94 274 8.0 17.0 0.00 0.00 0.00 32
20260508214513 95 265 10.0 17.0 0.00 0.00 0.00 33
20260508214407 95 265 10.0 17.0 0.00 0.00 0.00 33
20260508213950 95 273 7.0 18.0 0.00 0.00 0.00 33
20260508213906 95 273 7.0 18.0 0.00 0.00 0.00 33
20260508213438 94 262 10.0 18.0 0.00 0.00 0.00 33
20260508213407 94 262 10.0 18.0 0.00 0.00 0.00 33
20260508212943 95 270 8.0 15.0 0.00 0.00 0.00 32
20260508212906 95 270 8.0 15.0 0.00 0.00 0.00 32
20260508212406 94 279 7.0 16.0 0.00 0.00 0.00 32
20260508211950 94 275 8.0 16.0 0.00 0.00 0.00 33
20260508211906 94 275 8.0 16.0 0.00 0.00 0.00 33
20260508211442 94 271 9.0 15.0 0.00 0.00 0.00 33
20260508211406 94 271 9.0 15.0 0.00 0.00 0.00 33
20260508210952 94 293 6.0 13.0 0.00 0.00 0.00 32
20260508210906 94 293 6.0 13.0 0.00 0.00 0.00 32
20260508210407 95 266 9.0 13.0 0.00 0.00 0.00 33
20260508205947 95 270 5.0 10.0 0.00 0.00 0.00 33
20260508205906 95 270 5.0 10.0 0.00 0.00 0.00 33
20260508205406 95 302 5.0 10.0 0.00 0.00 0.00 32
20260508204952 94 281 5.0 14.0 0.00 0.00 0.00 32
20260508204907 94 281 5.0 14.0 0.00 0.00 0.00 32
20260508204446 93 265 7.0 14.0 0.00 0.00 0.00 33
20260508204406 93 265 7.0 14.0 0.00 0.00 0.00 33
20260508203950 94 285 7.0 12.0 0.00 0.00 0.00 32
20260508203906 94 285 7.0 12.0 0.00 0.00 0.00 32
20260508203406 95 262 7.0 12.0 0.00 0.00 0.00 33
20260508203012 93 284 5.0 14.0 0.00 0.00 0.00 32
20260508202906 93 284 5.0 14.0 0.00 0.00 0.00 32
20260508202409 94 251 6.0 14.0 0.00 0.00 0.00 33
20260508201953 93 279 4.0 13.0 0.00 0.00 0.00 32
20260508201906 93 279 4.0 13.0 0.00 0.00 0.00 32
20260508201447 94 308 6.0 12.0 0.00 0.00 0.00 32
20260508200937 94 315 4.0 10.0 0.00 0.00 0.00 32
20260508200906 94 315 4.0 10.0 0.00 0.00 0.00 32
20260508200438 93 243 5.0 10.0 0.00 0.00 0.00 33
20260508200406 93 243 5.0 10.0 0.00 0.00 0.00 33
20260508195956 92 268 2.0 8.0 0.00 0.00 0.00 33
20260508195906 92 268 2.0 8.0 0.00 0.00 0.00 33
20260508195504 92 325 4.0 9.0 0.00 0.00 0.00 32
20260508195407 92 325 4.0 9.0 0.00 0.00 0.00 32
20260508194947 92 281 5.0 11.0 0.00 0.00 0.00 32
20260508194906 92 281 5.0 11.0 0.00 0.00 0.00 32
20260508194440 92 276 5.0 12.0 0.00 0.00 0.00 33
20260508194407 92 276 5.0 12.0 0.00 0.00 0.00 33
20260508193947 92 263 5.0 12.0 0.00 0.00 0.00 33
20260508193906 92 263 5.0 12.0 0.00 0.00 0.00 33
20260508193437 92 227 5.0 10.0 0.00 0.00 0.00 32
20260508193406 92 227 5.0 10.0 0.00 0.00 0.00 32
20260508193000 92 281 4.0 8.0 0.00 0.00 0.00 32
20260508192906 92 281 4.0 8.0 0.00 0.00 0.00 32
20260508192500 92 267 3.0 9.0 0.00 0.00 0.00 33
20260508192406 92 267 3.0 9.0 0.00 0.00 0.00 33
20260508191959 92 308 3.0 9.0 0.00 0.00 0.00 32
20260508191906 92 308 3.0 9.0 0.00 0.00 0.00 32
20260508191445 92 311 3.0 8.0 0.00 0.00 0.00 31
20260508191406 92 311 3.0 8.0 0.00 0.00 0.00 31
20260508190945 91 319 3.0 5.0 0.00 0.00 0.00 31
20260508190907 91 319 3.0 5.0 0.00 0.00 0.00 31
20260508190445 91 326 2.0 7.0 0.00 0.00 0.00 31
20260508190406 91 326 2.0 7.0 0.00 0.00 0.00 31
20260508185952 90 1 3.0 10.0 0.00 0.00 0.00 31
20260508185906 90 1 3.0 10.0 0.00 0.00 0.00 31
20260508185443 91 258 5.0 10.0 0.00 0.00 0.00 33
20260508185406 91 258 5.0 10.0 0.00 0.00 0.00 33
20260508184940 91 272 4.0 8.0 0.00 0.00 0.00 32
20260508184906 91 272 4.0 8.0 0.00 0.00 0.00 32
20260508184444 90 354 2.0 6.0 0.00 0.00 0.00 30
20260508184408 90 354 2.0 6.0 0.00 0.00 0.00 30
20260508183942 90 312 3.0 8.0 0.00 0.00 0.00 32
20260508183906 90 312 3.0 8.0 0.00 0.00 0.00 32
20260508183408 90 279 3.0 8.0 0.00 0.00 0.00 33
20260508182948 90 306 3.0 5.0 0.00 0.00 0.00 32
20260508182906 90 306 3.0 5.0 0.00 0.00 0.00 32
20260508182519 90 320 2.0 4.0 0.00 0.00 0.00 32
20260508182407 90 320 2.0 4.0 0.00 0.00 0.00 32
20260508181947 89 314 2.0 8.0 0.00 0.00 0.00 32
20260508181906 89 314 2.0 8.0 0.00 0.00 0.00 32
20260508181406 89 283 3.0 8.0 0.00 0.00 0.00 32
20260508180906 89 319 1.0 5.0 0.00 0.00 0.00 32
20260508180441 89 261 2.0 7.0 0.00 0.00 0.00 32
20260508180406 89 261 2.0 7.0 0.00 0.00 0.00 32
20260508175906 88 271 3.0 7.0 0.00 0.00 0.00 31
20260508175407 87 99 2.0 6.0 0.00 0.00 0.00 30
20260508174943 88 222 4.0 8.0 0.00 0.00 0.00 33
20260508174908 88 222 4.0 8.0 0.00 0.00 0.00 33
20260508174444 88 242 4.0 8.0 0.00 0.00 0.00 33
20260508174407 88 242 4.0 8.0 0.00 0.00 0.00 33
20260508173940 87 320 2.0 6.0 0.00 0.00 0.00 31
20260508173907 87 320 2.0 6.0 0.00 0.00 0.00 31
20260508173406 87 259 3.0 8.0 0.00 0.00 0.00 32
20260508172906 87 272 4.0 8.0 0.00 0.00 0.00 32
20260508172503 86 308 2.0 7.0 0.00 0.00 0.00 31
20260508172409 86 308 2.0 7.0 0.00 0.00 0.00 31
20260508171942 87 307 3.0 7.0 0.00 0.00 0.00 31
20260508171906 87 307 3.0 7.0 0.00 0.00 0.00 31
20260508171454 87 244 3.0 7.0 0.00 0.00 0.00 31
20260508171406 87 244 3.0 7.0 0.00 0.00 0.00 31
20260508170952 86 170 3.0 5.0 0.00 0.00 0.00 32
20260508170906 86 170 3.0 5.0 0.00 0.00 0.00 32
20260508170406 86 266 3.0 5.0 0.00 0.00 0.00 33
20260508165941 85 310 2.0 4.0 0.00 0.00 0.00 32
20260508165906 85 310 2.0 4.0 0.00 0.00 0.00 32
20260508165437 84 327 2.0 6.0 0.00 0.00 0.00 32
20260508165406 84 327 2.0 6.0 0.00 0.00 0.00 32
20260508164939 84 253 3.0 7.0 0.00 0.00 0.00 33
20260508164906 84 253 3.0 7.0 0.00 0.00 0.00 33
20260508164448 85 257 4.0 8.0 0.00 0.00 0.00 33
20260508164407 85 257 4.0 8.0 0.00 0.00 0.00 33
20260508164037 85 262 4.0 8.0 0.00 0.00 0.00 33
20260508163906 85 262 4.0 8.0 0.00 0.00 0.00 33
20260508163406 84 272 2.0 8.0 0.00 0.00 0.00 32
20260508162906 84 236 4.0 8.0 0.00 0.00 0.00 33
20260508162406 84 227 5.0 9.0 0.00 0.00 0.00 33
20260508161945 84 233 4.0 9.0 0.00 0.00 0.00 33
20260508161906 84 233 4.0 9.0 0.00 0.00 0.00 33
20260508161440 83 234 3.0 7.0 0.00 0.00 0.00 31
20260508161407 83 234 3.0 7.0 0.00 0.00 0.00 31
20260508160938 83 261 3.0 7.0 0.00 0.00 0.00 31
20260508160906 83 261 3.0 7.0 0.00 0.00 0.00 31
20260508160406 83 241 3.0 7.0 0.00 0.00 0.00 33
20260508155942 82 223 2.0 7.0 0.00 0.00 0.00 33
20260508155906 82 223 2.0 7.0 0.00 0.00 0.00 33
20260508155408 83 238 4.0 7.0 0.00 0.00 0.00 34
20260508154906 83 229 5.0 7.0 0.00 0.00 0.00 33
20260508154406 83 243 4.0 7.0 0.00 0.00 0.00 33
20260508154015 83 239 3.0 6.0 0.00 0.00 0.00 33
20260508153906 83 239 3.0 6.0 0.00 0.00 0.00 33
20260508153408 83 215 2.0 5.0 0.00 0.00 0.00 33
20260508152906 83 225 2.0 5.0 0.00 0.00 0.00 33
20260508152441 82 0 1.0 5.0 0.00 0.00 0.00 32
20260508152406 82 0 1.0 5.0 0.00 0.00 0.00 32
20260508151906 82 303 3.0 5.0 0.00 0.00 0.00 33